IW4EMA-3 Weather Reports


Display with metric or nautical units.
time (UTC)temp
F
wind
direction
speed
MPH
gust
MPH
rain 1hr
in
rain 24hr
in
rain mn
in
humidity
%
barometer
mb
20260503034418 50 0.0 0.0 0.00 0.00 0.00 83 1018.9
20260503033425 50 0.0 0.0 0.00 0.00 0.00 83 1018.8
20260503032417 49 0.0 0.0 0.00 0.00 0.00 83 1018.7
20260503031426 50 0.0 0.0 0.00 0.00 0.00 82 1018.7
20260503030417 50 0.0 0.0 0.00 0.00 0.00 81 1018.9
20260503025425 51 0.0 0.0 0.00 0.00 0.00 80 1018.9
20260503024417 51 0.0 0.0 0.00 0.00 0.00 79 1019.0
20260503023425 51 0.0 0.0 0.00 0.00 0.00 79 1019.0
20260503022417 52 0.0 0.0 0.00 0.00 0.00 76 1019.0
20260503021426 53 0.0 0.0 0.00 0.00 0.00 75 1019.2
20260503020417 53 0.0 0.0 0.00 0.00 0.00 74 1019.0
20260503015445 54 0.0 0.0 0.00 0.00 0.00 72 1019.0
20260503014457 54 0.0 0.0 0.00 0.00 0.00 73 1019.1
20260503013425 54 0.0 0.0 0.00 0.00 0.00 72 1019.2
20260503012417 54 0.0 0.0 0.00 0.00 0.00 72 1019.2
20260503011425 54 0.0 0.0 0.00 0.00 0.00 74 1019.2
20260503010417 53 0.0 0.0 0.00 0.00 0.00 75 1019.2
20260503005426 53 0.0 0.0 0.00 0.00 0.00 75 1019.4
20260503004437 52 0.0 0.0 0.00 0.00 0.00 75 1019.3
20260503003425 54 0.0 0.0 0.00 0.00 0.00 73 1019.4
20260503002417 56 0.0 0.0 0.00 0.00 0.00 67 1019.4
20260503001425 57 180 1.0 1.0 0.00 0.00 0.00 65 1019.5
20260503000417 57 183 0.0 1.0 0.00 0.00 0.00 65 1019.6
20260502235529 57 183 0.0 1.0 0.00 0.00 0.00 64 1019.5
20260502234521 58 184 0.0 1.0 0.00 0.00 0.00 63 1019.8
20260502233530 58 184 1.0 1.0 0.00 0.00 0.00 61 1019.7
20260502232522 59 186 1.0 1.0 0.00 0.00 0.00 61 1019.8
20260502231529 58 197 0.0 1.0 0.00 0.00 0.00 64 1019.9
20260502230522 58 0.0 0.0 0.00 0.00 0.00 62 1020.0
20260502225529 59 197 1.0 1.0 0.00 0.00 0.00 60 1020.0
20260502224521 59 194 1.0 2.0 0.00 0.00 0.00 60 1020.1
20260502223530 60 189 1.0 1.0 0.00 0.00 0.00 60 1020.3
20260502222522 60 185 1.0 2.0 0.00 0.00 0.00 59 1020.2
20260502221530 60 154 2.0 3.0 0.00 0.00 0.00 59 1020.2
20260502220522 61 182 2.0 2.0 0.00 0.00 0.00 59 1020.3
20260502215529 61 169 2.0 2.0 0.00 0.00 0.00 59 1020.3
20260502214541 61 171 1.0 2.0 0.00 0.00 0.00 59 1020.3
20260502213530 62 179 1.0 2.0 0.00 0.00 0.00 57 1020.3
20260502212522 62 176 1.0 2.0 0.00 0.00 0.00 56 1020.3
20260502211530 62 178 1.0 1.0 0.00 0.00 0.00 57 1020.3
20260502210542 62 178 1.0 1.0 0.00 0.00 0.00 58 1020.3
20260502205529 62 179 1.0 1.0 0.00 0.00 0.00 59 1020.4
20260502204521 62 177 1.0 1.0 0.00 0.00 0.00 59 1020.4
20260502203530 62 178 0.0 1.0 0.00 0.00 0.00 59 1020.5
20260502202522 63 175 0.0 1.0 0.00 0.00 0.00 57 1020.4
20260502201530 64 174 0.0 1.0 0.00 0.00 0.00 54 1020.5
20260502200521 64 174 1.0 1.0 0.00 0.00 0.00 54 1020.6
20260502195529 66 102 3.0 3.0 0.00 0.00 0.00 53 1020.5
20260502194521 66 202 0.0 1.0 0.00 0.00 0.00 51 1020.4
20260502193550 66 202 1.0 1.0 0.00 0.00 0.00 50 1020.4
20260502192602 66 202 0.0 1.0 0.00 0.00 0.00 50 1020.5
20260502191530 66 202 0.0 1.0 0.00 0.00 0.00 50 1020.3
20260502190522 67 202 0.0 1.0 0.00 0.00 0.00 49 1020.4
20260502185530 67 0.0 0.0 0.00 0.00 0.00 48 1020.4
20260502184522 68 202 0.0 1.0 0.00 0.00 0.00 47 1020.3
20260502183530 68 203 0.0 1.0 0.00 0.00 0.00 47 1020.2
20260502182522 68 205 0.0 1.0 0.00 0.00 0.00 47 1020.3
20260502181530 69 211 2.0 3.0 0.00 0.00 0.00 45 1020.3
20260502180521 70 220 2.0 3.0 0.00 0.00 0.00 42 1020.1
20260502163530 74 175 3.0 4.0 0.00 0.00 0.00 36 1020.5
20260502162522 74 203 3.0 6.0 0.00 0.00 0.00 37 1020.4
20260502161550 76 185 3.0 6.0 0.00 0.00 0.00 35 1020.6
20260502160522 75 192 3.0 4.0 0.00 0.00 0.00 35 1020.7
20260502151546 75 194 1.0 2.0 0.00 0.00 0.00 34 1021.0
20260502150522 75 205 4.0 7.0 0.00 0.00 0.00 34 1021.2
20260502130522 75 171 3.0 4.0 0.00 0.00 0.00 34 1022.7
20260502123530 74 198 2.0 3.0 0.00 0.00 0.00 34 1023.0
20260502122522 73 91 2.0 2.0 0.00 0.00 0.00 34 1023.1
20260502121530 74 187 2.0 4.0 0.00 0.00 0.00 35 1023.2
20260502120522 74 219 4.0 9.0 0.00 0.00 0.00 33 1023.4
20260502115530 73 222 4.0 9.0 0.00 0.00 0.00 34 1023.5
20260502114522 73 204 5.0 8.0 0.00 0.00 0.00 34 1023.6
20260502113550 73 173 1.0 2.0 0.00 0.00 0.00 33 1023.7
20260502112522 74 213 4.0 7.0 0.00 0.00 0.00 33 1023.9
20260502111550 76 33 2.0 2.0 0.00 0.00 0.00 33 1024.0
20260502110522 74 300 2.0 3.0 0.00 0.00 0.00 34 1024.3
20260502105530 76 293 1.0 2.0 0.00 0.00 0.00 33 1024.2
20260502104522 76 35 2.0 3.0 0.00 0.00 0.00 32 1024.5
20260502103531 74 248 2.0 3.0 0.00 0.00 0.00 35 1024.5
20260502102522 74 199 1.0 2.0 0.00 0.00 0.00 35 1024.6
20260502100522 75 146 1.0 2.0 0.00 0.00 0.00 33 1025.0
20260502091531 71 244 1.0 2.0 0.00 0.00 0.00 36 1025.3
20260502090522 72 298 1.0 2.0 0.00 0.00 0.00 40 1025.3
20260502061619 58 0.0 0.0 0.00 0.00 0.00 63 1026.0
20260502060330 57 302 1.0 2.0 0.00 0.00 0.00 67 1026.0
20260502055322 57 244 0.0 1.0 0.00 0.00 0.00 68 1026.0
20260502054330 55 243 0.0 1.0 0.00 0.00 0.00 66 1026.1
20260502053324 55 242 1.0 1.0 0.00 0.00 0.00 65 1026.0
20260502052627 54 242 0.0 1.0 0.00 0.00 0.00 65 1026.0
20260502050039 51 0.0 0.0 0.00 0.00 0.00 69 1025.9
20260502040019 48 241 0.0 1.0 0.00 0.00 0.00 73 1025.9
20260502035026 48 0.0 0.0 0.00 0.00 0.00 74 1025.8